Location: Peterborough
(44.3091°N, 78.3197°W)
Time: 04:52:53
(UTC-04:00)

Tiros 1 despin weight - Pass Details

Date: 24 March 2023
Orbit: 586 x 632 km, 48.2° (Epoch: 08 June)

Event Time Altitude Azimuth Distance (km) Brightness Sun altitude
Rises 05:51:51 0° 279° (W) 2,868 - -14.5°
Reaches altitude 10° 05:56:04 10° 241° (WSW) 1,973 - -13.8°
Maximum altitude 05:57:04 11° 228° (SW) 1,931 - -13.6°
Drops below altitude 10° 05:58:04 10° 215° (SW) 1,977 - -13.4°
Exits shadow 05:58:47 - 207° (SSW) 2,059 ? -13.3°
Sets 06:02:19 0° 178° (S) 2,890 ? -12.7°
